Nantucket, MA (02554)

5:04 PM EDT on August 29, 2015 (GMT -0400)
Brant Point | | Change Station
CLOSE
Current Station
Personal Weather Station
Location: Nantucket, MA
Elevation: 7 ft
Nearby Weather Stations

Elev 7 ft 41.29 °N, 70.10 °W | Updated 17 seconds ago

Clear
Clear
76.7 °F
Feels Like 78 °F
N
0.0
Wind Variable Wind from NW
Gusts 0.0 mph

Today
High -- | Low -- °F
--% Chance of Precip.
Yesterday
High -- | Low -- °F
Precip. -- in
6:03 AM 7:18 PM
Full, 100% visible
Pressure 30.14 in
Visibility 10.0 miles
Clouds Clear
Heat Index 78 °F
Dew Point 67 °F
Humidity 70%
Rainfall Not available.
Snow Depth Not available.
UV 2 out of 12
Pollen 9.60 out of 12
Air Quality Not available.
Flu Activity Not available.
METAR KACK 292053Z 20010KT 10SM CLR 24/19 A3014 RMK AO2 SLP206 T02390189 56014
Pressure 30.14 in
Visibility 10.0 miles
Clouds Clear
Heat Index 78 °F
Dew Point 67 °F
Humidity 70%
Rainfall Not available.
Snow Depth Not available.
UV 2 out of 12
Pollen 9.60 out of 12
Air Quality Not available.
Flu Activity Not available.
METAR KACK 292053Z 20010KT 10SM CLR 24/19 A3014 RMK AO2 SLP206 T02390189 56014

10-Day Weather Forecast

×

Almanac

Astronomy

Aug. 29, 2015 Rise Set
Actual Time
Civil Twilight
Nautical Twilight
Astronomical Twilight
Moon
Length of Visible Light
Length of Day
Tomorrow will be .
, % of the Moon is Illuminated

Today's Extremes

State Highs State Lows

Community

WunderPhotos

Upload Photos

1,850,800 photos uploaded!

WunderBlogs® & News

Nearby

Air Quality

  Air Quality AQ Index Pollutant
Not available.

Snow Depth

Station Depth Elevation

Earthquake Activity

City Distance Mag. Time & Date
Minimum magnitude displayed is 2.5.

Coastal Water Temperatures

Place Temperature

Stations

Nearby Weather Stations

Station Location Temp. Windchill Dew Point Humidity Wind Precip. Elev Updated Type